• In Hungary
  • List of Countries
  • For 7 days
  • Water Temperature
  • Satellite Maps
  • Weather Map
  • News
  • Weather Widgets
  • user-avatar
    Login

    Hourly Weather Novosapashevo

    Today, 21 September, Friday

    Time Temperature Precipitation Wind Pressure Humidity
    00:00 +9°C° 0 mm 3 mps 738 mmHg 89%
    01:00 +9°C° 0 mm 3 mps 737 mmHg 88%
    02:00 +8°C° 0 mm 3 mps 738 mmHg 90%
    03:00 +7°C° 0 mm 3 mps 738 mmHg 91%
    04:00 +7°C° 0 mm 3 mps 738 mmHg 93%
    05:00 +7°C° 0 mm 3 mps 738 mmHg 92%
    06:00 +7°C° 0 mm 3 mps 738 mmHg 92%
    07:00 +7°C° 0 mm 3 mps 739 mmHg 91%
    08:00 +8°C° 0 mm 3 mps 739 mmHg 88%
    09:00 +8°C° 0 mm 4 mps 739 mmHg 84%
    10:00 +11°C° 0 mm 4 mps 740 mmHg 80%
    11:00 +11°C° 0 mm 4 mps 740 mmHg 78%
    12:00 +12°C° 0 mm 5 mps 740 mmHg 77%
    13:00 +12°C° 0 mm 5 mps 740 mmHg 75%
    14:00 +12°C° 0 mm 4 mps 741 mmHg 75%
    15:00 +12°C° 0 mm 4 mps 741 mmHg 75%
    16:00 +13°C° 0 mm 4 mps 741 mmHg 76%
    17:00 +12°C° 0 mm 3 mps 742 mmHg 80%
    18:00 +11°C° 0 mm 3 mps 742 mmHg 84%
    19:00 +10°C° 0 mm 2 mps 742 mmHg 89%
    20:00 +10°C° 0 mm 2 mps 743 mmHg 90%
    21:00 +9°C° 0 mm 2 mps 743 mmHg 92%
    22:00 +9°C° 0 mm 2 mps 743 mmHg 93%
    23:00 +9°C° 0 mm 2 mps 744 mmHg 94%

    Tomorrow, 22 September, Saturday

    Time Temperature Precipitation Wind Pressure Humidity
    00:00 +8°C° 0 mm 2 mps 744 mmHg 94%
    01:00 +8°C° 0 mm 2 mps 744 mmHg 94%
    02:00 +8°C° 0 mm 2 mps 745 mmHg 95%
    03:00 +8°C° 0 mm 2 mps 745 mmHg 95%
    04:00 +7°C° 0 mm 2 mps 745 mmHg 96%
    05:00 +7°C° 0 mm 2 mps 746 mmHg 95%
    06:00 +8°C° 0 mm 2 mps 746 mmHg 94%
    07:00 +8°C° 0 mm 2 mps 747 mmHg 94%
    08:00 +9°C° 0 mm 2 mps 747 mmHg 87%
    09:00 +12°C° 0 mm 2 mps 747 mmHg 80%
    10:00 +12°C° 0 mm 3 mps 747 mmHg 73%
    11:00 +13°C° 0 mm 3 mps 747 mmHg 66%
    12:00 +16°C° 0 mm 3 mps 747 mmHg 59%
    13:00 +17°C° 0 mm 4 mps 747 mmHg 51%
    14:00 +17°C° 0 mm 4 mps 747 mmHg 52%
    15:00 +17°C° 0 mm 4 mps 747 mmHg 53%
    16:00 +17°C° 0 mm 4 mps 747 mmHg 54%
    17:00 +16°C° 0 mm 3 mps 747 mmHg 63%
    18:00 +14°C° 0 mm 2 mps 747 mmHg 72%
    19:00 +12°C° 0 mm 1 mps 747 mmHg 82%
    20:00 +12°C° 0 mm 1 mps 748 mmHg 84%
    21:00 +12°C° 0 mm 1 mps 748 mmHg 87%
    22:00 +10°C° 0 mm 0 mps 748 mmHg 90%
    23:00 +10°C° 0 mm 0 mps 748 mmHg 90%

    Day after tomorrow, 23 September, Sunday

    Time Temperature Precipitation Wind Pressure Humidity
    00:00 +10°C° 0 mm 0 mps 748 mmHg 91%
    01:00 +11°C° 0 mm 1 mps 748 mmHg 92%
    02:00 +11°C° 0 mm 1 mps 748 mmHg 92%
    03:00 +11°C° 0 mm 1 mps 748 mmHg 92%
    04:00 +11°C° 0 mm 1 mps 748 mmHg 92%
    05:00 +12°C° 0 mm 1 mps 748 mmHg 92%
    06:00 +12°C° 0 mm 1 mps 748 mmHg 93%
    07:00 +13°C° 0 mm 1 mps 748 mmHg 93%
    08:00 +14°C° 0 mm 1 mps 748 mmHg 90%
    09:00 +15°C° 0 mm 1 mps 748 mmHg 87%
    10:00 +16°C° 0 mm 1 mps 748 mmHg 84%
    11:00 +18°C° 0 mm 1 mps 748 mmHg 79%
    12:00 +20°C° 0 mm 1 mps 748 mmHg 75%
    13:00 +21°C° 0 mm 1 mps 748 mmHg 70%
    14:00 +21°C° 0 mm 1 mps 747 mmHg 68%
    15:00 +21°C° 0 mm 1 mps 747 mmHg 66%
    16:00 +22°C° 0 mm 1 mps 747 mmHg 64%
    17:00 +20°C° 0 mm 1 mps 747 mmHg 71%
    18:00 +18°C° 0 mm 1 mps 747 mmHg 77%
    19:00 +16°C° 0 mm 1 mps 747 mmHg 84%
    20:00 +15°C° 0 mm 1 mps 747 mmHg 85%
    21:00 +15°C° 0 mm 1 mps 747 mmHg 87%
    22:00 +14°C° 0 mm 1 mps 747 mmHg 88%
    23:00 +14°C° 0 mm 1 mps 747 mmHg 89%

    24 September, Monday

    Time Temperature Precipitation Wind Pressure Humidity
    00:00 +14°C° 0 mm 1 mps 747 mmHg 90%
    01:00 +13°C° 0 mm 1 mps 747 mmHg 91%
    02:00 +13°C° 0 mm 1 mps 746 mmHg 91%
    03:00 +13°C° 0 mm 1 mps 746 mmHg 92%
    04:00 +13°C° 0 mm 1 mps 746 mmHg 92%
    05:00 +13°C° 0 mm 2 mps 746 mmHg 92%
    06:00 +13°C° 0 mm 2 mps 746 mmHg 92%
    07:00 +13°C° 0 mm 2 mps 746 mmHg 92%
    08:00 +14°C° 0 mm 3 mps 746 mmHg 79%
    09:00 +17°C° 0 mm 4 mps 745 mmHg 67%
    10:00 +19°C° 0 mm 5 mps 745 mmHg 55%
    11:00 +20°C° 0 mm 5 mps 745 mmHg 51%
    12:00 +21°C° 0 mm 6 mps 745 mmHg 48%
    13:00 +22°C° 0 mm 6 mps 745 mmHg 44%
    14:00 +22°C° 0 mm 6 mps 744 mmHg 45%
    15:00 +22°C° 0 mm 5 mps 744 mmHg 46%
    16:00 +22°C° 0 mm 5 mps 744 mmHg 47%
    17:00 +20°C° 0 mm 4 mps 744 mmHg 52%
    18:00 +18°C° 0 mm 4 mps 744 mmHg 58%
    19:00 +16°C° 0 mm 3 mps 744 mmHg 63%
    20:00 +16°C° 0 mm 3 mps 744 mmHg 64%
    21:00 +14°C° 0 mm 3 mps 744 mmHg 65%
    22:00 +14°C° 0 mm 3 mps 744 mmHg 65%
    23:00 +14°C° 0 mm 3 mps 744 mmHg 66%

    25 September, Tuesday

    Time Temperature Precipitation Wind Pressure Humidity
    00:00 +13°C° 0 mm 3 mps 744 mmHg 67%
    01:00 +13°C° 0 mm 4 mps 744 mmHg 68%
    02:00 +13°C° 0 mm 3 mps 744 mmHg 68%
    03:00 +12°C° 0 mm 3 mps 745 mmHg 69%
    04:00 +12°C° 0 mm 3 mps 745 mmHg 70%
    05:00 +12°C° 0 mm 3 mps 745 mmHg 69%
    06:00 +12°C° 0 mm 3 mps 745 mmHg 69%
    07:00 +12°C° 0 mm 3 mps 745 mmHg 69%
    08:00 +14°C° 0 mm 4 mps 745 mmHg 62%
    09:00 +17°C° 0 mm 4 mps 745 mmHg 56%
    10:00 +19°C° 0 mm 5 mps 745 mmHg 50%
    11:00 +20°C° 0 mm 5 mps 745 mmHg 47%
    12:00 +21°C° 0 mm 6 mps 745 mmHg 45%
    13:00 +22°C° 0 mm 6 mps 745 mmHg 42%
    14:00 +22°C° 0 mm 6 mps 745 mmHg 42%
    15:00 +22°C° 0 mm 5 mps 745 mmHg 43%
    16:00 +21°C° 0 mm 5 mps 745 mmHg 43%
    17:00 +19°C° 0 mm 4 mps 745 mmHg 47%
    18:00 +18°C° 0 mm 4 mps 745 mmHg 51%
    19:00 +15°C° 0 mm 4 mps 745 mmHg 54%
    20:00 +14°C° 0 mm 4 mps 745 mmHg 53%
    21:00 +13°C° 0 mm 4 mps 745 mmHg 51%
    22:00 +13°C° 0 mm 4 mps 745 mmHg 50%
    23:00 +12°C° 0 mm 4 mps 745 mmHg 51%

    26 September, Wednesday

    Time Temperature Precipitation Wind Pressure Humidity
    00:00 +12°C° 0 mm 3 mps 746 mmHg 52%
    01:00 +11°C° 0 mm 3 mps 746 mmHg 53%
    02:00 +11°C° 0 mm 3 mps 746 mmHg 55%
    03:00 +11°C° 0 mm 3 mps 746 mmHg 57%
    04:00 +10°C° 0 mm 3 mps 746 mmHg 58%
    05:00 +10°C° 0 mm 3 mps 746 mmHg 59%
    06:00 +10°C° 0 mm 3 mps 746 mmHg 60%
    07:00 +10°C° 0 mm 3 mps 747 mmHg 61%
    08:00 +13°C° 0 mm 4 mps 747 mmHg 55%
    09:00 +15°C° 0 mm 5 mps 747 mmHg 48%
    10:00 +19°C° 0 mm 5 mps 747 mmHg 42%
    11:00 +20°C° 0 mm 6 mps 747 mmHg 39%
    12:00 +21°C° 0 mm 6 mps 747 mmHg 36%
    13:00 +22°C° 0 mm 6 mps 747 mmHg 34%
    14:00 +21°C° 0 mm 5 mps 747 mmHg 35%
    15:00 +21°C° 0 mm 4 mps 747 mmHg 36%
    16:00 +21°C° 0 mm 4 mps 747 mmHg 38%
    17:00 +19°C° 0 mm 3 mps 747 mmHg 42%
    18:00 +17°C° 0 mm 3 mps 747 mmHg 46%
    19:00 +16°C° 0 mm 2 mps 747 mmHg 50%
    20:00 +15°C° 0 mm 2 mps 748 mmHg 51%
    21:00 +14°C° 0 mm 2 mps 748 mmHg 52%
    22:00 +14°C° 0 mm 2 mps 748 mmHg 53%
    23:00 +14°C° 0 mm 2 mps 748 mmHg 53%
    Show more